Flag for India Weather past 2 weeks in Maraimalai Nagar, Tamil Nadu, India

Now
84 °F

Broken clouds.


Feels Like: 90 °F
Forecast: 76 / 88 °F
Wind: 5 mph from Northwest

Location: Madras / Minambakkam

Current Time: Aug 27, 2014 at 4:54:20 PM

Latest Report: Aug 27, 2014 at 4:10 PM


Visibility: 4 mi

Pressure: 29.62 "Hg

Humidity: 66%

Dew point: 72 °F

Location of Maraimalai NagarLocation

Historic Weather in Maraimalai Nagar — Graph

°F

Maraimalai Nagar temperature yesterday

Maximum temperature yesterday: 93 °F (at 4:10 PM)
Minimum temperature yesterday: 77 °F (at 5:40 AM)
Average temperature yesterday: 85 °F

Past Weeks' High & Low Weather Summary

 TemperatureHumidityPressure
High99 °F (Aug 23, 4:40 AM)94% (Aug 16, 3:40 AM)29.86 "Hg (Aug 16, 3:40 AM)
Low75 °F (Aug 25, 12:10 AM)44% (Aug 14, 2:40 PM)29.59 "Hg (Aug 21, 3:40 PM)
Average85 °F73%29.72 "Hg
* Reported Aug 12 3:40 PM — Aug 27 3:40 PM, Maraimalai Nagar, Weather by CustomWeather, © 2014

Note: Actual official high and low records may vary slightly from our data, if they occured in-between our weather recording intervals... More about our weather records

Advertising

Maraimalai Nagar weather history for previous 24 hours

 ConditionsComfort  
Time TempWeatherWind HumidityBarometerVisibility
3:40 PM
Aug 27
86 °FBroken clouds.6 mph62%29.62 "Hg4 mi
3:10 PM86 °FBroken clouds.8 mph62%29.65 "Hg4 mi
2:40 PM86 °FBroken clouds.8 mph62%29.65 "Hg4 mi
2:10 PM86 °FBroken clouds.8 mph62%29.65 "Hg4 mi
1:40 PM88 °FBroken clouds.9 mph59%29.68 "Hg4 mi
1:10 PM88 °FPartly sunny.9 mph59%29.68 "Hg4 mi
12:40 PM86 °FPartly sunny.9 mph62%29.71 "Hg4 mi
12:10 PM86 °FBroken clouds.9 mph62%29.71 "Hg4 mi
11:40 AM86 °FBroken clouds.9 mph62%29.74 "Hg4 mi
11:10 AM86 °FBroken clouds.9 mph66%29.74 "Hg4 mi
10:40 AM86 °FBroken clouds.7 mph66%29.74 "Hg4 mi
10:10 AM84 °FBroken clouds.8 mph70%29.74 "Hg4 mi
9:40 AM84 °FBroken clouds.6 mph70%29.74 "Hg4 mi
9:10 AM84 °FBroken clouds.7 mph70%29.74 "Hg4 mi
8:40 AM82 °FBroken clouds.6 mph74%29.74 "Hg4 mi
8:10 AM82 °FBroken clouds.5 mph79%29.74 "Hg4 mi
7:40 AM82 °FBroken clouds.5 mph79%29.71 "Hg4 mi
7:10 AM81 °FBroken clouds.5 mph84%29.71 "Hg4 mi
6:40 AM81 °FDrizzle. Broken clouds.5 mph84%29.71 "Hg4 mi
6:10 AM79 °FPartly cloudy.6 mph89%29.68 "Hg4 mi
5:40 AM81 °FPartly cloudy.7 mph89%29.68 "Hg4 mi
5:10 AM81 °FPartly cloudy.9 mph89%29.68 "Hg4 mi
4:40 AM81 °FPartly cloudy.9 mph89%29.68 "Hg4 mi
4:10 AM81 °FPartly cloudy.9 mph89%29.68 "Hg4 mi
3:40 AM82 °FPartly cloudy.9 mph84%29.68 "Hg4 mi
3:10 AM82 °FPartly cloudy.9 mph84%29.68 "Hg4 mi
2:40 AM82 °FPassing clouds.12 mph84%29.68 "Hg4 mi
2:10 AM82 °FPassing clouds.10 mph84%29.68 "Hg4 mi
1:40 AM82 °FPassing clouds.6 mph84%29.68 "Hg4 mi
1:10 AM82 °FPassing clouds.5 mph84%29.71 "Hg4 mi
12:40 AM82 °FPassing clouds.6 mph84%29.71 "Hg4 mi
12:10 AM84 °FPassing clouds.3 mph79%29.71 "Hg4 mi
11:40 PM
Aug 26
84 °FPassing clouds.5 mph79%29.71 "Hg4 mi
11:10 PM84 °FPassing clouds.5 mph79%29.74 "Hg4 mi
10:40 PM84 °FPassing clouds.7 mph79%29.74 "Hg4 mi
10:10 PM84 °FPassing clouds.9 mph79%29.74 "Hg4 mi
9:40 PM84 °FPassing clouds.9 mph79%29.74 "Hg4 mi
9:10 PM84 °FPassing clouds.9 mph79%29.71 "Hg4 mi
8:40 PM84 °FPassing clouds.9 mph79%29.71 "Hg4 mi
8:10 PM86 °FPassing clouds.9 mph70%29.71 "Hg4 mi
7:40 PM86 °FPassing clouds.12 mph70%29.68 "Hg4 mi
7:10 PM86 °FPassing clouds.7 mph70%29.68 "Hg4 mi
6:40 PM88 °FPassing clouds.6 mph66%29.65 "Hg4 mi
6:10 PM90 °FPassing clouds.5 mph63%29.65 "Hg4 mi
5:40 PM90 °FPassing clouds.5 mph63%29.62 "Hg4 mi
5:10 PM90 °FPassing clouds.8 mph59%29.62 "Hg4 mi
4:40 PM91 °FScattered clouds.6 mph56%29.62 "Hg4 mi
4:10 PM93 °FScattered clouds.5 mph53%29.62 "Hg4 mi
Weather by CustomWeather, © 2014

See weather overviewHow to use our weather pages